Dewpoint
21 17 16 15 16 21 36 43 45 46 48 47 46 48 50 51 53 52 52 52 51 52 53 54 55 56 53 54 53 53 51 50 48 47 49 48 47 47 47 49 50 51 51 52
18 17 21 23 32 37 40 44 45 46 45 45 46 48 50 53 52 53 52 52 51 52 54 55 52 52 53 53 53 49 48 48 50 48 49 48 48 47 47 49 50 51 52 51
17 18 26 33 31 31 32 34 44 44 47 47 47 47 49 53 54 54 53 52 52 53 52 51 49 50 49 50 48 48 48 48 49 48 48 48 48 48 47 48 49 50 51 53
28 31 28 27 26 26 25 39 45 44 43 41 45 40 45 48 50 53 53 53 52 52 51 48 48 51 47 48 49 47 46 47 48 49 47 46 46 44 46 46 48 48 49 51
33 33 31 30 29 30 29 44 43 43 43 41 42 42 45 48 48 52 52 52 51 52 50 47 48 46 49 47 46 46 46 46 47 48 47 45 43 44 45 45 44 45 46 48
35 37 35 32 30 30 30 27 27 31 38 35 39 38 39 45 46 51 50 50 50 50 49 50 46 44 44 45 45 46 46 46 46 46 46 44 43 43 43 43 44 44 45 46
32 35 37 36 33 31 27 25 23 22 34 35 41 38 39 45 50 50 49 49 49 47 43 42 43 42 43 43 44 44 45 44 45 45 45 44 43 43 43 43 43 43 43 45
32 32 35 34 32 28 28 27 25 23 30 35 40 38 40 48 50 48 48 47 44 41 41 41 42 42 42 43 43 43 43 44 45 45 45 44 44 45 44 44 45 43 44 49
31 32 34 32 32 31 31 28 29 31 37 35 39 43 48 49 48 47 46 45 41 40 40 41 41 42 42 42 42 42 42 44 44 44 44 45 45 45 45 46 45 48 50 51
38 30 34 35 32 30 30 32 26 32 29 30 35 36 39 46 46 45 45 41 39 40 39 39 39 40 40 41 41 43 43 44 44 44 44 45 45 45 45 45 45 49 49 48
35 30 33 36 33 29 30 29 33 34 34 32 30 34 41 45 46 45 44 42 39 38 38 39 39 40 41 42 42 43 44 44 44 44 45 45 45 44 45 44 45 46 45 46
39 36 34 35 37 33 31 32 31 30 32 35 34 34 40 44 46 44 41 39 38 38 38 38 39 41 41 41 42 44 44 45 46 45 45 46 46 45 44 44 45 45 45 45
40 33 28 30 30 32 30 31 33 35 36 33 31 33 41 41 40 39 36 37 38 38 38 38 38 39 41 42 42 43 44 45 46 46 45 45 46 48 49 47 44 44 45 46
46 38 33 29 30 32 31 33 35 35 33 35 36 36 38 39 38 37 37 38 38 38 38 38 38 39 41 42 42 43 43 45 45 46 46 45 45 47 46 48 46 45 45 45
41 37 33 32 33 32 32 33 35 37 37 33 37 37 38 38 36 37 38 38 37 37 37 38 39 40 40 42 43 44 45 44 45 47 46 46 46 46 48 48 47 48 47 47
40 37 37 35 33 34 35 35 35 34 31 34 35 35 39 37 37 37 37 38 37 37 38 39 41 40 41 43 44 45 46 45 46 46 47 47 47 48 47 49 49 48 47 48
39 40 39 34 39 37 36 39 35 35 36 33 31 34 38 37 37 37 38 38 38 39 40 41 42 41 42 43 44 44 46 46 46 46 47 47 47 48 47 47 47 46 47 48
44 42 41 39 40 32 40 40 38 38 39 39 39 38 38 37 38 38 39 39 39 40 41 42 42 42 42 43 44 45 46 45 45 46 46 47 49 48 48 48 46 45 45 44
48 43 40 38 38 39 40 44 41 38 37 40 39 38 39 39 39 38 40 40 40 41 42 42 42 42 43 44 44 46 45 44 45 46 47 48 49 48 48 48 47 46 45 45
44 47 43 41 35 32 39 41 43 41 35 40 40 39 39 39 35 36 40 42 42 42 43 43 42 42 43 43 45 44 44 45 46 47 48 48 48 47 45 46 47 49 48 45
41 44 41 40 38 40 42 43 41 32 32 40 39 40 39 38 39 38 41 43 43 42 42 43 42 42 43 44 46 43 44 45 47 48 48 48 48 47 45 41 43 45 48 46
43 41 39 39 36 34 43 39 34 40 42 39 40 40 39 40 40 40 41 43 43 43 42 42 42 43 44 45 46 44 44 47 48 48 47 47 47 46 41 35 37 39 42 43
39 41 40 39 39 43 42 41 44 40 38 38 40 41 41 41 40 40 40 43 43 43 42 43 43 43 44 46 45 44 46 47 48 46 46 46 48 48 44 30 29 33 33 38
45 44 41 41 44 42 41 42 41 39 37 40 41 42 42 40 41 41 43 43 43 44 43 44 43 44 44 46 47 46 47 48 47 46 46 48 47 47 46 41 29 25 25 24
45 44 40 40 41 42 42 42 40 38 39 42 42 42 41 40 41 43 44 44 44 44 43 44 44 44 45 46 47 47 48 48 47 47 47 47 47 48 47 44 38 27 23 23
45 45 41 39 41 40 41 42 41 39 38 41 42 42 42 42 41 44 44 44 44 44 44 45 45 44 45 46 47 48 48 48 47 46 46 46 47 48 47 45 40 36 35 35
Lifted_Index
0 0 0 1 0 -0 -1 -1 -1 -1 -1 -1 -1 -1 -0 -0 0 1 1 0 0 1 1 1 2 2 3 3 4 5 5 5 5 5 6 6 6 6 6 5 5 4 4 4
1 1 1 1 0 -0 -1 -1 -1 -1 -1 -1 -1 -1 -0 -0 -0 0 0 0 0 1 1 2 2 3 3 4 4 4 5 5 5 6 6 6 6 6 6 6 5 5 4 4
1 1 1 0 0 -0 -0 -0 -1 -1 -1 -1 -1 -0 -0 -1 -1 -1 -1 -0 0 1 1 2 3 3 4 4 4 4 4 5 5 6 6 7 7 7 7 6 6 5 5 4
1 0 0 -0 -0 0 0 0 -0 -0 -1 -0 -0 -0 -0 -1 -1 -1 -1 -1 0 1 2 3 3 4 4 4 4 4 4 5 6 6 7 7 7 7 7 7 7 6 5 5
-0 -0 -0 -0 -0 0 0 0 0 -0 -0 -0 -0 -0 -0 -1 -1 -1 -1 -0 1 2 3 3 4 4 4 4 4 5 5 6 7 7 7 7 8 8 8 7 7 6 6 5
-1 -1 -0 -0 -0 0 0 0 0 0 -0 -0 0 0 -0 -1 -1 -1 -0 1 2 2 3 3 3 4 4 5 5 6 7 7 7 7 7 8 8 8 7 7 7 7 6 5
-1 -1 -0 0 0 0 0 0 0 0 0 0 0 0 -0 -1 -1 -0 1 2 2 3 3 3 3 4 4 5 7 7 8 7 7 7 7 7 8 7 7 7 7 6 5 4
-0 -0 0 1 1 1 1 1 1 1 1 1 0 0 -0 -1 -0 0 1 2 3 3 3 4 4 5 5 7 8 8 8 7 7 7 7 7 7 7 7 7 6 5 4 3
-0 -0 0 1 1 1 2 2 1 1 1 1 0 0 -0 -0 -0 1 1 2 3 3 4 4 5 6 7 8 8 8 8 7 7 7 7 7 7 7 7 6 5 4 4 3
0 0 1 1 1 2 2 2 1 1 1 1 1 0 0 -0 0 1 2 2 3 4 4 5 6 7 8 8 8 8 8 7 7 7 7 7 7 7 7 6 5 4 4 3
1 1 1 2 2 2 2 2 1 1 1 1 1 1 1 0 0 1 2 2 3 4 5 5 6 8 8 8 8 8 7 7 7 7 6 6 6 7 7 6 5 5 4 3
1 1 1 2 2 2 2 2 2 1 1 1 1 1 1 1 1 1 2 3 3 4 5 6 7 8 8 8 8 7 7 7 7 6 6 6 6 6 6 6 6 5 4 4
1 1 1 2 2 2 2 2 2 1 1 1 1 1 1 1 1 2 2 3 3 4 5 6 7 8 8 8 7 7 7 7 6 6 6 6 6 6 6 6 6 6 5 5
0 1 1 1 2 2 2 2 1 1 1 1 1 1 2 2 2 3 3 3 4 4 5 5 6 7 7 7 7 7 7 6 6 5 6 6 6 6 5 6 6 6 6 5
0 1 1 1 2 2 2 1 1 1 2 2 2 2 2 2 3 3 3 3 4 4 4 5 6 6 7 7 7 7 6 6 6 5 6 6 6 5 5 5 6 6 5 5
-0 0 1 1 1 1 1 1 1 1 2 2 2 2 2 3 3 3 3 3 4 4 4 5 6 6 7 7 6 6 6 6 6 5 5 6 6 5 5 5 5 5 5 5
-1 -0 -0 0 0 0 0 1 1 1 2 2 2 2 3 3 3 3 3 4 4 5 5 5 6 6 6 6 6 6 6 6 5 5 5 5 5 5 5 5 5 5 6 6
-1 -1 -0 -0 -0 -0 0 0 1 1 1 1 2 2 3 3 3 3 4 4 5 6 6 6 6 6 6 6 6 6 6 6 5 5 5 5 5 5 5 5 6 6 6 7
-0 -0 -0 -0 -0 -0 0 1 1 1 1 1 2 2 3 3 3 4 5 5 6 6 6 6 6 7 6 6 6 6 6 5 5 5 5 5 5 6 6 6 6 6 6 7
0 -0 -0 -0 -0 0 1 1 1 1 1 2 2 3 3 4 4 5 5 6 6 6 7 7 7 7 6 6 6 6 6 5 5 5 5 5 6 6 6 6 6 6 6 6
0 -0 -0 -0 -0 0 1 2 2 2 2 3 3 4 4 4 4 5 6 6 6 7 7 7 7 6 6 5 6 6 6 5 5 5 5 6 6 6 7 7 7 6 6 6
0 0 0 0 0 1 2 3 3 3 3 3 4 4 4 4 5 5 6 6 6 6 7 7 6 6 5 5 6 6 5 5 5 5 5 6 6 6 7 8 8 8 7 7
0 0 0 0 1 2 2 3 3 3 3 4 4 4 4 5 5 5 6 6 6 6 6 6 6 6 5 5 5 5 5 5 5 5 6 6 6 6 6 7 8 9 9 9
0 1 1 1 1 2 2 2 2 2 3 3 4 4 4 5 5 5 6 6 6 6 6 6 6 5 5 5 5 5 5 5 5 6 6 6 6 6 6 6 7 8 9 10
1 1 1 1 1 1 2 2 2 2 2 2 3 3 4 4 5 5 5 6 6 6 6 6 5 5 5 5 5 5 5 5 5 6 6 6 6 6 6 6 6 7 8 10
1 1 1 1 1 1 1 1 1 1 1 2 2 3 3 4 4 5 5 6 6 6 6 6 5 5 5 5 5 5 5 5 5 6 6 6 6 6 6 6 6 6 8 9